Date,TemperatureHighF,TemperatureAvgF,TemperatureLowF,DewpointHighF,DewpointAvgF,DewpointLowF,HumidityHigh,HumidityAvg,HumidityLow,PressureMaxIn,PressureMinIn,WindSpeedMaxMPH,WindSpeedAvgMPH,GustSpeedMaxMPH,PrecipitationSumIn
2013-2-8,32.2,27.4,18.7,31.9,24.1,-99.9,99,95,96,0.00,40.00,20,-18,0,0.65
2013-2-9,23.0,18.6,15.1,21.0,15.6,5.5,97,88,65,0.00,40.00,22,10,0,0.00
2013-2-10,38.5,20.3,13.3,8.1,3.8,1.6,64,50,24,0.00,40.00,11,5,0,0.00
2013-2-11,45.5,36.5,24.6,45.2,31.1,10.8,99,82,53,0.00,40.00,11,4,0,0.37
2013-2-12,45.7,39.9,35.8,39.8,30.5,26.1,99,70,47,0.00,40.00,22,9,0,0.09
2013-2-13,45.9,37.2,30.9,28.9,24.8,22.3,77,61,43,0.00,40.00,10,4,0,0.00
2013-2-14,35.4,34.6,33.6,28.9,26.7,23.9,78,73,66,0.00,40.00,4,2,0,0.00
2013-2-16,39.6,36.7,31.5,31.7,24.1,17.7,82,60,52,0.00,40.00,9,5,0,0.03
2013-2-17,31.1,22.1,17.6,19.7,11.7,0.9,93,66,42,0.00,40.00,24,12,0,0.65
2013-2-18,34.0,24.2,15.1,3.2,1.0,-2.6,52,37,21,0.00,40.00,25,12,0,0.26
2013-2-19,48.2,38.3,24.8,44.0,24.7,2.4,98,60,37,0.00,40.00,15,6,0,0.55
2013-2-20,43.5,33.6,27.0,42.2,20.1,9.6,95,59,38,0.00,40.00,22,10,0,0.11
2013-2-21,35.4,28.1,25.3,15.9,13.4,10.3,64,54,39,0.00,40.00,16,9,0,0.00
2013-2-22,26.8,26.3,26.1,17.7,16.6,15.6,68,66,64,0.00,40.00,9,6,0,0.00
2013-2-23,39.7,36.8,34.5,35.4,32.1,29.5,97,84,67,0.00,40.00,12,6,0,0.33
2013-2-24,38.8,35.3,31.3,38.4,34.7,31.0,99,97,94,0.00,40.00,13,5,0,0.96
2013-2-25,44.4,36.1,30.2,33.2,29.8,25.9,99,79,56,0.00,40.00,9,3,0,0.24
2013-2-26,44.4,39.0,31.6,33.1,30.2,26.5,97,71,53,0.00,40.00,15,6,0,0.00
2013-2-27,42.1,40.7,39.4,41.3,39.1,32.5,99,94,75,0.00,40.00,21,11,0,4.21
2013-2-28,49.6,39.7,34.0,40.1,36.0,33.7,99,88,60,0.00,40.00,7,4,0,0.00
2013-3-1,42.3,38.9,35.6,35.3,30.2,27.3,87,71,60,0.00,40.00,10,5,0,0.00
2013-3-2,45.5,38.7,33.3,29.8,26.9,25.0,72,63,50,0.00,40.00,12,5,0,0.00
2013-3-3,43.3,37.1,33.3,31.7,27.3,24.2,82,68,61,0.00,40.00,10,5,0,0.00
2013-3-4,41.5,35.2,30.6,29.4,23.9,20.8,86,64,47,0.00,40.00,21,10,0,0.01
2013-3-5,45.7,38.3,32.0,33.5,27.7,21.9,79,66,52,0.00,40.00,17,6,0,0.00
2013-3-6,40.5,38.2,35.8,35.5,33.0,29.1,91,82,64,0.00,40.00,27,12,0,1.18
2013-3-7,37.0,33.1,30.9,32.1,30.5,28.7,96,90,72,0.00,40.00,18,8,0,0.27
2013-3-8,41.9,34.3,29.8,31.5,28.1,22.5,97,80,50,0.00,40.00,19,6,0,0.64
2013-3-9,45.7,37.8,31.1,31.1,26.7,21.3,91,65,51,0.00,40.00,10,5,0,0.12
2013-3-10,43.0,35.7,28.6,31.5,29.7,27.3,95,80,61,0.00,40.00,10,4,0,0.00
2013-3-11,53.8,43.1,36.0,39.9,35.8,31.6,91,76,57,0.00,40.00,13,6,0,0.00
2013-3-12,57.2,50.9,41.7,53.3,47.5,39.6,95,88,76,0.00,40.00,20,8,0,0.55
2013-3-13,53.6,47.7,38.7,51.4,29.8,19.7,96,52,31,0.00,40.00,17,7,0,0.00
2013-3-14,38.5,31.2,23.5,20.0,11.2,5.7,49,43,37,0.00,40.00,17,10,0,0.01
2013-3-15,42.6,31.1,20.5,26.4,11.9,3.5,66,46,23,0.00,40.00,15,8,0,0.00
2013-3-16,45.3,35.4,29.3,25.6,14.7,7.3,67,44,22,0.00,40.00,13,5,0,0.00
2013-3-17,39.4,32.3,26.4,18.9,9.7,3.8,58,40,23,0.00,40.00,15,6,0,0.00
2013-3-18,38.5,29.0,19.8,27.4,10.1,0.1,94,47,27,0.00,40.00,12,5,0,0.00
2013-3-19,37.0,33.1,28.2,36.8,32.7,27.5,99,98,95,0.00,40.00,23,9,0,1.88
2013-3-20,41.9,33.0,25.2,27.3,21.6,17.5,97,66,38,0.00,40.00,20,8,0,0.11
2013-3-21,39.2,32.7,28.6,29.2,22.1,15.7,92,66,42,0.00,40.00,8,3,0,0.00
2013-3-22,41.9,36.6,30.7,28.0,19.7,15.2,89,51,35,0.00,40.00,17,7,0,0.00
2013-3-23,45.7,37.0,29.5,22.6,19.4,17.1,68,50,33,0.00,40.00,21,10,0,0.02
2013-3-24,52.2,40.3,32.2,29.5,23.5,19.6,68,52,34,0.00,40.00,13,6,0,0.00
2013-3-25,44.6,39.3,34.2,34.0,29.6,25.1,74,68,61,0.00,40.00,18,7,0,0.00
2013-3-26,54.5,42.2,33.8,31.9,24.8,18.7,91,53,26,0.00,40.00,13,5,0,0.06
2013-3-27,54.1,44.7,34.0,31.4,24.2,21.1,66,46,30,0.00,40.00,18,6,0,0.00
2013-3-28,48.4,42.9,37.6,34.9,32.4,29.1,88,67,48,0.00,40.00,10,4,0,0.00
2013-3-29,57.4,47.8,39.2,35.1,31.8,28.7,71,55,36,0.00,40.00,12,5,0,0.00
2013-3-30,59.7,48.8,39.0,32.5,26.4,14.0,70,46,17,0.00,40.00,10,5,0,0.00
2013-4-1,59.9,44.0,36.3,46.3,26.9,11.6,84,52,33,0.00,40.00,24,11,0,0.26
2013-4-2,41.9,35.6,30.6,16.7,13.1,9.3,49,40,28,0.00,40.00,27,10,0,0.16
2013-4-3,47.1,38.0,30.9,19.0,13.0,8.8,59,37,22,0.00,40.00,24,11,0,0.10
2013-4-4,58.6,42.5,30.7,26.1,16.7,10.4,55,38,16,0.00,40.00,16,8,0,0.00
2013-4-5,64.2,47.6,38.5,30.6,26.6,20.9,67,47,21,0.00,40.00,21,7,0,0.00
2013-4-6,51.6,40.6,33.4,25.8,10.3,2.2,56,31,15,0.00,40.00,14,6,0,0.00
2013-4-7,52.9,43.6,31.8,39.8,27.6,13.9,77,55,34,0.00,40.00,23,7,0,0.06
2013-4-8,67.6,53.9,45.3,43.2,40.3,35.8,90,63,32,0.00,40.00,11,5,0,0.00
2013-4-9,73.0,56.2,47.8,51.3,43.8,38.2,89,66,37,0.00,40.00,16,7,0,0.06
2013-4-10,62.6,52.4,46.9,48.2,43.9,41.2,87,73,55,0.00,40.00,11,4,0,0.20
2013-4-11,51.1,47.7,44.2,46.4,40.0,34.1,94,75,63,0.00,40.00,10,5,0,0.07
2013-4-12,43.9,40.2,37.9,38.9,35.6,29.2,96,84,63,0.00,40.00,21,10,0,1.10
2013-4-13,54.9,46.5,37.9,39.3,37.5,34.4,95,72,50,0.00,40.00,9,4,0,0.01
2013-4-14,53.8,48.2,41.7,40.1,30.9,26.4,78,52,36,0.00,40.00,16,7,0,0.00
2013-4-15,53.4,46.4,36.1,39.0,33.2,28.1,76,60,46,0.00,40.00,12,6,0,0.00
2013-4-16,64.0,52.8,40.8,49.3,41.5,35.1,88,67,47,0.00,40.00,21,9,0,0.00
2013-4-17,71.2,60.6,52.0,51.9,37.6,27.8,81,46,22,0.00,40.00,13,6,0,0.00
2013-4-18,65.5,54.9,47.7,42.6,35.1,28.2,68,48,32,0.00,40.00,17,7,0,0.00
2013-4-19,74.5,63.6,53.1,62.9,57.5,43.2,99,82,58,0.00,40.00,26,10,0,0.06
2013-4-20,66.4,55.3,45.9,62.8,41.5,25.1,95,64,36,0.00,40.00,20,8,0,0.96
2013-4-21,55.8,44.4,35.8,29.8,23.2,19.4,62,44,26,0.00,40.00,15,6,0,0.00
2013-4-22,50.2,43.6,36.3,35.3,30.7,24.1,76,61,36,0.00,40.00,20,8,0,0.02
2013-4-23,43.3,42.1,40.8,41.9,38.9,30.7,98,89,65,0.00,40.00,15,7,0,0.22
2013-4-24,76.5,55.7,42.4,51.7,45.5,41.9,98,73,33,0.00,40.00,15,7,0,0.01
2013-4-25,69.4,57.4,48.7,52.8,37.2,24.7,92,52,20,0.00,40.00,19,7,0,0.06
2013-4-26,56.7,50.8,46.2,41.7,36.1,29.7,82,58,46,0.00,40.00,15,6,0,0.00
2013-4-27,62.4,53.2,41.2,42.9,37.1,30.9,96,59,32,0.00,40.00,12,5,0,0.00
2013-4-28,68.4,56.3,42.3,42.3,35.9,28.0,82,49,29,0.00,40.00,15,5,0,0.00
2013-4-29,71.4,58.5,48.7,45.5,37.8,15.0,83,51,17,0.00,40.00,13,5,0,0.00
2013-4-30,66.9,57.2,46.4,38.7,30.0,14.9,68,40,14,0.00,40.00,12,4,0,0.00
2013-5-1,67.1,57.1,42.3,40.5,34.0,27.1,72,44,24,0.00,40.00,14,4,0,0.00
2013-5-2,75.6,57.4,47.1,48.8,41.6,35.4,84,59,27,0.00,40.00,17,5,0,0.00
2013-5-3,59.7,50.7,44.2,44.1,40.9,38.8,84,69,56,0.00,40.00,12,4,0,0.00
2013-5-4,56.1,49.8,43.3,43.7,40.2,37.8,88,70,57,0.00,40.00,16,5,0,0.00
2013-5-5,57.2,49.3,38.5,42.6,39.7,37.4,97,71,50,0.00,40.00,15,5,0,0.00
2013-5-6,62.2,51.9,41.5,49.5,45.4,40.2,99,80,57,0.00,40.00,12,4,0,0.00
2013-5-7,76.1,63.7,47.1,59.1,52.1,45.8,95,68,48,0.00,40.00,13,5,0,0.00
2013-5-8,70.2,62.4,55.6,61.5,57.6,54.5,97,85,70,0.00,40.00,14,5,0,0.36
2013-5-9,71.2,60.2,57.7,60.7,58.1,55.7,99,93,58,0.00,40.00,10,3,0,0.80
2013-5-10,79.7,66.9,56.1,60.3,57.4,54.7,99,74,46,0.00,40.00,12,4,0,0.00
2013-5-11,73.4,64.7,59.4,61.8,58.5,53.6,92,81,63,0.00,40.00,20,7,0,0.02
2013-5-12,75.7,62.8,51.8,60.5,51.8,30.4,97,71,38,0.00,40.00,19,6,0,0.09
2013-5-13,61.5,52.7,45.3,33.6,30.7,27.3,59,44,30,0.00,40.00,19,6,0,0.00
2013-5-14,62.6,52.1,42.1,35.5,31.2,28.3,67,46,29,0.00,40.00,13,4,0,0.00
2013-5-15,68.0,55.0,40.3,52.4,39.4,30.3,89,59,30,0.00,40.00,18,5,0,0.00
2013-5-16,83.8,71.9,51.6,52.2,41.5,33.1,96,40,20,0.00,40.00,19,7,0,0.00
2013-5-17,75.0,61.9,53.8,46.7,42.7,37.1,68,51,30,0.00,40.00,9,5,0,0.00
2013-5-18,74.5,62.2,48.2,48.6,44.6,38.3,88,55,27,0.00,40.00,13,5,0,0.00
2013-5-19,71.6,58.4,51.1,55.2,50.2,46.1,96,76,50,0.00,40.00,12,4,0,0.09
2013-5-20,85.3,68.4,55.9,66.3,61.2,55.1,99,81,51,0.00,40.00,10,4,0,0.43
2013-5-21,77.4,62.1,52.5,62.8,57.7,50.7,99,86,61,0.00,40.00,13,4,0,0.02
2013-5-22,66.4,58.5,51.4,59.7,54.4,50.6,98,87,74,0.00,40.00,12,5,0,0.02
2013-5-23,77.9,65.9,54.9,68.4,61.9,54.3,99,88,69,0.00,40.00,17,5,0,0.09
2013-5-24,72.1,63.6,50.0,66.6,61.5,49.7,99,93,76,0.00,40.00,12,5,0,1.60
2013-5-25,53.1,48.6,42.6,50.8,47.3,39.3,99,95,88,0.00,40.00,17,6,0,0.60
2013-5-26,60.8,49.9,39.9,42.4,39.6,37.7,96,70,47,0.00,40.00,19,8,0,0.02
2013-5-27,77.2,60.5,42.8,45.2,39.1,34.1,88,51,23,0.00,40.00,14,5,0,0.00
2013-5-28,72.7,61.8,47.5,53.7,47.0,39.7,90,61,38,0.00,40.00,11,4,0,0.00
2013-5-29,75.4,64.0,59.0,64.5,60.0,52.5,98,87,69,0.00,40.00,10,4,0,1.13
2013-5-30,90.9,78.2,64.2,68.8,66.6,63.6,99,70,48,0.00,40.00,14,5,0,0.01
2013-5-31,97.5,84.4,68.5,69.6,66.6,64.2,86,58,35,0.00,40.00,13,5,0,0.00
2013-6-1,95.9,82.9,70.3,68.9,65.6,62.0,75,57,39,0.00,40.00,20,6,0,0.00
2013-6-2,90.3,79.0,68.9,69.9,66.3,63.5,86,67,45,0.00,40.00,24,9,0,0.01
2013-6-3,79.2,70.3,65.1,67.7,63.5,45.8,96,80,48,0.00,40.00,10,4,0,0.69
2013-6-4,76.1,65.1,53.4,46.8,44.7,40.7,63,48,35,0.00,40.00,12,6,0,0.00
2013-6-5,77.2,66.0,53.8,51.7,46.8,43.0,75,51,33,0.00,40.00,9,4,0,0.00
2013-6-6,74.8,66.0,56.5,55.7,50.0,44.2,76,58,36,0.00,40.00,11,5,0,0.00
2013-6-7,60.6,56.9,54.7,57.0,54.3,47.7,99,91,70,0.00,40.00,15,6,0,4.59
2013-6-8,81.7,65.0,54.1,64.8,58.1,53.9,99,81,55,0.00,40.00,13,5,0,0.95
2013-6-9,83.7,71.6,59.7,58.1,56.0,53.9,88,61,38,0.00,40.00,14,4,0,0.00
2013-6-10,70.2,64.1,58.1,59.3,56.3,54.5,97,77,58,0.00,40.00,10,5,0,0.96
2013-6-11,67.3,60.0,56.5,60.0,57.5,55.6,99,92,75,0.00,40.00,18,4,0,2.31
2013-6-12,73.2,63.7,56.8,59.1,55.7,53.0,99,77,54,0.00,40.00,18,5,0,0.07
2013-6-13,71.6,59.7,53.4,56.8,53.0,50.6,96,80,54,0.00,40.00,9,4,0,0.91
2013-6-14,81.3,62.7,52.2,57.6,53.6,49.8,98,75,41,0.00,40.00,12,4,0,1.95
2013-6-15,84.9,71.0,58.6,53.8,48.0,42.0,83,48,24,0.00,40.00,13,4,0,0.00
2013-6-16,78.6,69.6,58.3,62.3,53.4,45.4,82,57,40,0.00,40.00,10,5,0,0.00
2013-6-17,88.9,72.5,61.9,63.6,60.2,57.2,95,69,35,0.00,40.00,12,5,0,0.20
2013-6-18,77.4,64.9,59.7,63.1,59.6,57.0,97,84,56,0.00,40.00,11,3,0,0.83
2013-6-19,77.0,66.3,56.5,58.6,52.0,44.3,95,63,36,0.00,40.00,13,4,0,0.01
2013-6-20,84.2,69.8,54.1,56.2,52.2,48.2,92,57,32,0.00,40.00,10,4,0,0.00
2013-6-21,89.1,74.1,59.7,64.0,58.3,53.1,80,60,38,0.00,40.00,10,5,0,0.00
2013-6-22,87.3,74.8,64.2,63.2,58.9,54.7,72,59,40,0.00,40.00,13,6,0,0.00
2013-6-23,91.8,78.7,66.0,72.0,64.5,55.5,75,63,49,0.00,40.00,14,6,0,0.00
2013-6-24,96.1,82.1,71.2,73.0,70.2,67.1,93,70,45,0.00,40.00,12,6,0,0.47
2013-6-25,94.1,81.7,70.3,71.7,68.1,65.7,93,66,43,0.00,40.00,13,6,0,0.00
2013-6-26,90.3,76.8,68.5,70.8,67.7,66.4,93,74,53,0.00,40.00,9,4,0,0.00
2013-6-27,71.2,66.3,62.8,66.4,63.5,61.6,96,91,79,0.00,40.00,10,4,0,0.01
2013-6-28,83.5,71.8,62.2,72.1,67.6,61.7,99,88,63,0.00,40.00,17,7,0,0.86
2013-6-29,83.8,75.8,71.2,70.3,68.8,66.8,94,80,60,0.00,40.00,13,7,0,0.00
2013-6-30,85.5,77.0,70.3,72.0,69.6,67.4,93,79,63,0.00,40.00,12,6,0,0.00
2013-7-1,85.6,76.7,72.0,73.8,71.8,70.1,96,86,68,0.00,40.00,12,5,0,0.05
2013-7-2,85.6,74.6,63.0,73.5,68.8,60.0,91,83,66,0.00,40.00,10,5,0,0.00
2013-7-3,92.7,78.7,64.2,74.6,69.2,61.0,91,74,55,0.00,40.00,14,6,0,0.00
2013-7-4,95.7,84.7,74.1,75.3,73.3,70.9,92,71,51,0.00,40.00,15,6,0,0.00
2013-7-5,96.4,86.7,77.9,75.3,73.2,71.4,81,66,48,0.00,40.00,11,6,0,0.00
2013-7-6,94.5,85.3,77.5,74.0,71.7,64.8,82,65,49,0.00,40.00,17,6,0,0.00
2013-7-7,95.7,82.8,75.0,74.1,69.4,63.9,83,65,49,0.00,40.00,11,4,0,0.00
2013-7-8,85.3,77.3,68.9,73.9,70.0,63.7,90,79,65,0.00,40.00,13,4,0,0.00
2013-7-9,75.9,70.4,66.4,67.0,64.7,63.3,93,83,72,0.00,40.00,8,3,0,0.00
2013-7-10,86.9,75.5,67.1,74.1,69.9,64.0,96,84,65,0.00,40.00,16,6,0,0.02
2013-7-11,83.5,77.9,73.6,73.5,70.9,67.5,92,80,67,0.00,40.00,8,4,0,0.21
2013-7-12,77.5,72.3,67.3,69.3,61.3,56.7,90,69,54,0.00,40.00,14,5,0,0.00
2013-7-13,77.0,71.0,67.3,68.1,65.4,62.3,92,83,73,0.00,40.00,7,4,0,0.00
2013-7-14,95.0,81.3,70.9,74.1,71.2,67.3,96,74,43,0.00,40.00,8,3,0,0.00
2013-7-15,94.5,84.3,73.6,73.3,71.8,70.4,91,68,48,0.00,40.00,7,2,0,0.00
2013-7-16,97.0,84.5,74.1,72.5,68.4,65.1,82,60,39,0.00,40.00,10,4,0,0.00
2013-7-17,97.5,86.2,74.8,74.4,70.2,66.5,79,61,39,0.00,40.00,11,4,0,0.00
2013-7-18,94.1,84.1,78.1,75.6,71.4,68.4,79,67,49,0.00,40.00,13,6,0,0.00
2013-7-19,99.1,88.6,78.4,77.3,74.5,71.8,84,65,43,0.00,40.00,19,7,0,0.00
2013-7-20,96.3,86.6,79.2,76.9,73.2,64.9,84,65,43,0.00,40.00,17,6,0,0.00
2013-7-21,83.5,76.8,72.7,68.0,64.3,60.5,83,66,52,0.00,40.00,13,5,0,0.04
2013-7-22,82.4,74.7,68.9,70.2,67.5,65.5,93,79,63,0.00,40.00,14,5,0,0.00
2013-7-23,82.0,73.4,70.0,76.0,70.9,67.0,97,92,79,0.00,40.00,18,4,0,2.63
2013-7-24,88.7,78.9,69.1,73.5,68.0,55.9,99,72,50,0.00,40.00,11,4,0,0.00
2013-7-25,68.4,62.7,59.9,59.3,55.0,49.3,96,77,60,0.00,40.00,10,4,0,0.54
2013-7-26,72.0,65.3,60.3,67.5,63.0,59.1,98,93,80,0.00,40.00,11,4,0,1.72
2013-7-27,87.1,73.9,61.0,67.4,63.5,59.5,95,72,46,0.00,40.00,11,5,0,0.00
2013-7-28,82.0,72.4,68.0,70.8,67.4,65.1,94,85,69,0.00,40.00,10,4,0,0.01
2013-7-29,84.7,74.1,67.8,71.9,68.4,65.1,96,83,62,0.00,40.00,9,3,0,0.58
2013-7-30,86.7,74.7,62.2,67.7,60.3,55.1,98,65,36,0.00,40.00,9,4,0,0.00
2013-7-31,83.7,74.8,64.4,63.7,60.3,56.0,81,62,41,0.00,40.00,9,3,0,0.00
2013-8-1,83.3,73.3,64.8,65.6,62.4,60.6,90,70,50,0.00,40.00,14,5,0,0.00
2013-8-2,86.5,74.0,65.1,67.8,62.6,58.0,96,70,42,0.00,40.00,13,4,0,0.31
2013-8-3,82.4,73.4,67.1,64.3,62.5,60.6,83,70,50,0.00,40.00,12,6,0,0.00
2013-8-4,83.7,72.1,62.4,60.7,57.2,54.6,79,61,39,0.00,40.00,11,4,0,0.00
2013-8-5,81.5,68.7,58.3,53.3,48.3,42.9,79,51,27,0.00,40.00,14,5,0,0.00
2013-8-6,80.1,68.9,54.3,56.3,50.9,46.5,79,55,36,0.00,40.00,9,3,0,0.00
2013-8-7,82.9,71.0,59.0,61.1,55.2,48.4,91,60,36,0.00,40.00,12,5,0,0.00
2013-8-8,83.5,73.3,66.2,71.3,65.5,53.8,90,77,62,0.00,40.00,11,6,0,0.14
2013-8-9,76.1,73.6,72.3,74.6,71.3,69.1,97,93,88,0.00,40.00,10,6,0,2.10
2013-8-10,85.8,76.6,68.0,72.3,62.4,54.0,97,65,38,0.00,40.00,12,6,0,0.00
2013-8-11,82.9,71.7,57.6,58.7,54.5,50.8,88,57,39,0.00,40.00,12,4,0,0.00
2013-8-12,86.7,74.2,63.1,64.4,58.9,54.1,84,62,38,0.00,40.00,9,4,0,0.00
2013-8-13,79.7,71.5,67.5,66.8,63.5,60.9,84,76,58,0.00,40.00,11,3,0,0.00
2013-8-14,77.4,69.0,62.8,63.9,55.2,51.2,90,63,43,0.00,40.00,17,6,0,0.00
2013-8-15,79.9,70.8,58.6,54.3,51.6,49.4,79,53,36,0.00,40.00,11,4,0,0.00
2013-8-16,84.6,70.9,57.4,58.4,54.4,51.6,82,58,33,0.00,40.00,10,4,0,0.00
2013-8-17,79.3,71.0,60.4,60.3,57.2,53.7,84,63,44,0.00,40.00,10,4,0,0.00
2013-8-18,82.4,72.6,63.1,62.6,59.5,56.6,86,65,44,0.00,40.00,8,3,0,0.00
2013-8-19,84.7,73.6,62.1,62.6,59.9,57.2,86,64,41,0.00,40.00,11,5,0,0.00
2013-8-20,90.3,78.3,66.4,65.1,61.7,59.2,81,59,36,0.00,40.00,8,3,0,0.00
2013-8-21,93.2,78.9,65.3,66.2,63.7,60.0,84,62,40,0.00,40.00,8,3,0,0.00
2013-8-22,88.2,77.4,68.2,71.6,67.4,63.2,89,72,52,0.00,40.00,12,6,0,0.00
2013-8-23,82.9,73.5,66.9,69.2,60.5,51.2,91,65,43,0.00,40.00,12,4,0,0.00
2013-8-24,76.6,68.1,57.2,52.4,47.8,41.4,75,50,31,0.00,40.00,15,4,0,0.00
2013-8-25,86.0,71.6,55.4,56.5,52.5,46.7,87,54,28,0.00,40.00,13,4,0,0.00
2013-8-26,83.5,73.5,66.6,66.6,61.9,56.6,78,68,53,0.00,40.00,14,5,0,0.00
2013-8-27,80.2,73.5,68.2,69.7,67.2,64.8,96,81,63,0.00,40.00,10,4,0,0.06
2013-8-28,81.3,72.4,64.2,67.5,64.9,62.3,96,79,58,0.00,40.00,11,5,0,0.00
2013-8-29,68.0,65.5,62.8,64.9,61.8,57.7,96,88,82,0.00,40.00,10,4,0,0.00
2013-8-30,85.8,72.4,63.0,68.8,63.7,58.4,86,75,56,0.00,40.00,9,4,0,0.00
2013-8-31,84.2,75.4,69.3,73.8,70.5,67.2,94,85,71,0.00,40.00,11,5,0,0.00
2013-9-1,80.8,74.0,69.8,75.5,71.1,66.9,95,91,83,0.00,40.00,9,4,0,0.76
2013-9-2,82.4,75.6,71.2,74.6,71.9,68.2,96,89,75,0.00,40.00,10,5,0,0.06
2013-9-3,82.2,74.8,66.9,71.8,68.4,59.4,98,81,62,0.00,40.00,12,4,0,0.00
2013-9-4,83.3,71.9,61.0,60.9,57.3,54.9,86,63,40,0.00,40.00,13,5,0,0.00
2013-9-5,68.9,64.3,55.4,62.6,57.1,46.5,92,78,66,0.00,40.00,11,3,0,0.14
2013-9-6,72.9,60.9,48.7,47.1,43.2,37.4,79,55,30,0.00,40.00,8,3,0,0.00
2013-9-7,81.1,66.6,52.9,57.0,50.2,44.4,77,57,35,0.00,40.00,11,4,0,0.00
2013-9-8,77.4,67.2,55.8,62.1,52.4,41.3,81,61,36,0.00,40.00,14,5,0,0.00
2013-9-9,70.7,60.0,46.9,50.9,44.7,40.7,82,59,37,0.00,40.00,11,4,0,0.00
2013-9-10,78.1,68.4,58.3,69.9,62.1,50.6,90,80,75,0.00,40.00,15,6,0,0.08
2013-9-11,97.3,82.3,69.8,77.4,72.3,67.7,98,75,42,0.00,40.00,13,5,0,0.00
2013-9-12,88.7,79.3,68.5,74.9,71.1,66.7,97,77,59,0.00,40.00,15,7,0,0.96
2013-9-13,81.7,70.1,60.6,68.5,65.1,55.3,98,85,60,0.00,40.00,8,3,0,0.34
2013-9-14,68.2,62.2,55.2,55.4,53.4,50.5,84,73,62,0.00,40.00,9,4,0,0.00
2013-9-15,74.7,62.0,50.0,53.0,50.0,46.5,95,68,42,0.00,40.00,9,4,0,0.00
2013-9-16,71.1,60.2,50.5,55.0,50.2,40.0,83,70,54,0.00,40.00,10,4,0,0.01
2013-9-17,67.8,54.2,42.6,44.7,39.2,35.6,80,59,38,0.00,40.00,9,3,0,0.00
2013-9-18,76.6,60.8,43.5,50.3,44.8,41.5,96,61,29,0.00,40.00,8,3,0,0.00
2013-9-19,81.3,65.1,50.5,55.2,51.6,46.2,86,64,39,0.00,40.00,9,3,0,0.00
2013-9-20,79.0,65.7,52.3,59.4,55.4,50.7,95,72,43,0.00,40.00,9,3,0,0.00
2013-9-21,76.8,67.2,57.2,65.5,60.7,55.2,99,81,60,0.00,40.00,19,6,0,0.00
2013-9-22,74.3,66.6,54.7,67.3,57.8,46.9,95,75,46,0.00,40.00,19,6,0,0.54
2013-9-23,66.0,55.5,47.1,45.9,42.5,39.7,79,63,46,0.00,40.00,11,5,0,0.00
2013-9-24,71.6,55.8,44.2,46.5,42.5,39.3,84,63,38,0.00,40.00,11,4,0,0.00
2013-9-25,65.8,57.0,47.7,49.7,47.0,43.7,87,70,53,0.00,40.00,13,4,0,0.00
2013-9-26,66.9,59.7,54.7,51.3,49.0,46.4,78,68,51,0.00,40.00,10,3,0,0.00
2013-9-27,69.1,60.5,53.2,53.7,51.1,48.7,85,72,54,0.00,40.00,9,3,0,0.00
2013-9-28,72.7,60.1,49.6,57.6,53.2,48.8,98,80,55,0.00,40.00,11,3,0,0.00
2013-9-29,67.1,56.9,48.7,55.5,50.9,47.4,99,82,53,0.00,40.00,10,3,0,0.00
2013-9-30,68.0,57.9,51.1,53.6,51.3,49.0,99,80,54,0.00,40.00,7,2,0,0.00
2013-10-1,82.2,63.2,48.9,55.4,51.9,48.4,99,71,36,0.00,40.00,9,2,0,0.00
2013-10-2,82.6,69.4,58.3,62.4,58.3,53.8,86,69,50,0.00,40.00,17,5,0,0.00
2013-10-3,80.8,68.1,56.3,57.7,51.1,46.1,88,58,30,0.00,40.00,9,3,0,0.00
2013-10-4,68.2,62.2,54.5,58.6,53.8,49.6,86,74,63,0.00,40.00,4,2,0,0.08
2013-10-5,70.2,63.7,59.4,58.4,56.7,54.8,91,79,61,0.00,40.00,8,3,0,0.00
2013-10-6,62.2,58.2,56.1,58.2,56.1,53.9,97,93,79,0.00,40.00,11,4,0,0.54
2013-10-7,77.4,68.0,58.8,70.8,64.6,55.1,99,90,76,0.00,40.00,26,7,0,0.06
2013-10-8,68.9,60.0,52.2,55.1,45.3,38.4,80,60,36,0.00,40.00,9,4,0,0.00
2013-10-9,62.2,54.5,45.3,48.0,44.7,40.0,91,70,49,0.00,40.00,12,4,0,0.00
2013-10-10,63.7,56.2,46.0,53.5,51.0,45.0,97,83,69,0.00,40.00,8,3,0,0.00
2013-10-11,71.2,59.3,51.1,57.2,51.4,45.6,99,77,43,0.00,40.00,10,3,0,0.00
2013-10-12,61.0,56.2,50.9,57.3,52.8,48.5,98,88,80,0.00,40.00,19,4,0,0.00
2013-10-13,61.7,54.6,45.3,50.7,47.3,43.7,95,77,58,0.00,40.00,11,4,0,0.00
2013-10-14,66.2,52.5,39.2,51.0,45.0,37.7,99,78,35,0.00,40.00,8,2,0,0.00
2013-10-15,68.5,58.4,49.1,54.8,51.2,46.9,95,78,59,0.00,40.00,10,3,0,0.00
2013-10-16,65.7,57.7,50.7,57.1,54.1,50.1,99,88,74,0.00,40.00,6,2,0,0.00
2013-10-17,73.9,62.8,54.0,61.9,58.3,53.7,99,86,64,0.00,40.00,9,4,0,0.00
2013-10-18,69.6,62.4,50.7,62.0,52.0,42.6,97,72,43,0.00,40.00,16,6,0,0.07
2013-10-19,67.5,57.6,46.9,47.7,43.6,40.3,78,61,40,0.00,40.00,11,4,0,0.00
2013-10-20,63.9,56.0,48.0,51.1,40.9,32.9,92,60,33,0.00,40.00,16,5,0,0.00
2013-10-21,69.4,55.0,39.7,45.2,40.4,35.2,87,60,37,0.00,40.00,10,4,0,0.00
2013-10-22,69.6,58.7,49.3,52.8,47.4,38.4,81,67,50,0.00,40.00,13,5,0,0.00
2013-10-23,54.3,48.2,40.5,38.2,35.2,32.8,83,62,44,0.00,40.00,7,2,0,0.00
2013-10-24,55.6,47.3,39.6,36.3,30.5,24.8,77,54,33,0.00,40.00,13,6,0,0.00
2013-10-25,52.2,43.8,37.0,34.9,29.6,26.7,80,58,39,0.00,40.00,12,5,0,0.00
2013-10-26,57.4,45.8,33.8,37.6,31.1,26.2,87,59,31,0.00,40.00,18,6,0,0.00
2013-10-27,56.8,49.4,43.5,40.6,35.0,29.4,87,59,41,0.00,40.00,11,6,0,0.02
2013-10-28,61.0,47.5,37.8,36.0,32.2,24.7,78,57,38,0.00,40.00,17,6,0,0.02
2013-10-29,51.4,41.3,33.1,34.8,29.0,23.8,86,62,38,0.00,40.00,9,3,0,0.00
2013-10-30,54.9,43.3,36.7,43.6,37.9,33.2,96,82,61,0.00,40.00,8,2,0,0.06
2013-10-31,63.7,52.0,38.5,60.6,49.6,38.0,99,92,80,0.00,40.00,12,4,0,0.06
2013-11-1,71.6,65.4,59.9,63.9,59.3,54.7,96,81,66,0.00,40.00,22,10,0,0.57
2013-11-2,69.3,58.7,51.1,54.5,46.0,40.6,89,66,37,0.00,40.00,7,2,0,0.00
2013-11-3,52.7,42.7,33.1,47.4,32.1,17.1,95,68,39,0.00,40.00,9,4,0,0.11
2013-11-4,44.4,35.9,29.7,25.4,20.8,16.5,79,55,33,0.00,40.00,8,3,0,0.00
2013-11-5,52.0,40.1,28.6,36.3,28.8,22.5,81,65,42,0.00,40.00,7,3,0,0.00
2013-11-6,62.1,52.0,41.7,50.7,42.4,34.2,87,71,49,0.00,40.00,12,5,0,0.00
2013-11-7,67.6,54.7,41.5,59.1,50.5,33.3,94,86,67,0.00,40.00,15,7,0,0.37
2013-11-8,48.6,42.0,35.8,35.4,27.9,22.6,76,58,48,0.00,40.00,22,8,0,0.02
2013-11-9,46.0,40.3,32.9,29.8,24.7,21.2,71,54,37,0.00,40.00,12,6,0,0.00
2013-11-10,58.6,47.9,43.0,43.3,37.0,29.6,88,67,47,0.00,40.00,18,6,0,0.06
2013-11-11,53.6,46.4,39.7,33.7,29.0,25.3,65,51,34,0.00,40.00,19,7,0,0.00
2013-11-12,48.6,36.7,28.8,40.0,25.8,16.4,92,66,51,0.00,40.00,16,6,0,0.20
2013-11-13,38.1,30.8,24.8,17.5,15.1,11.5,71,53,37,0.00,40.00,12,6,0,0.00
2013-11-14,52.7,43.2,29.5,25.5,21.6,16.3,60,43,32,0.00,40.00,12,5,0,0.00
2013-11-15,63.1,48.7,36.0,34.7,23.2,17.2,65,39,18,0.00,40.00,13,4,0,0.00
2013-11-16,61.7,48.8,41.2,37.2,30.8,22.2,81,52,22,0.00,40.00,9,3,0,0.00
2013-11-17,59.7,49.8,38.1,57.8,45.3,34.3,99,85,68,0.00,40.00,7,2,0,0.07
2013-11-18,68.2,60.9,49.3,63.0,49.3,33.3,99,69,42,0.00,40.00,18,7,0,0.31
2013-11-19,48.7,40.9,31.8,32.8,22.7,17.1,56,48,37,0.00,40.00,16,8,0,0.00
2013-11-20,43.7,34.8,28.9,16.8,14.8,12.3,59,45,28,0.00,40.00,12,4,0,0.00
2013-11-21,49.3,38.2,26.6,32.1,20.8,14.4,67,50,31,0.00,40.00,8,3,0,0.00
2013-11-22,47.7,45.4,42.1,46.9,42.3,32.3,98,89,68,0.00,40.00,6,3,0,0.31
2013-11-23,48.9,41.8,30.7,47.1,27.1,15.2,96,58,33,0.00,40.00,20,10,0,0.00
2013-11-24,30.6,25.1,21.0,17.8,4.4,-4.8,69,42,24,0.00,40.00,27,13,0,0.39
2013-11-25,35.1,26.2,17.4,17.8,3.1,-7.2,56,38,18,0.00,40.00,17,7,0,0.00
2013-11-26,43.5,38.0,31.6,43.0,24.5,17.7,98,59,43,0.00,40.00,13,5,0,0.12
2013-11-27,63.1,52.5,37.9,62.2,51.7,34.4,99,97,87,0.00,40.00,28,9,0,3.84
2013-11-28,37.8,32.2,25.9,34.2,17.3,6.0,87,55,34,0.00,40.00,24,10,0,0.06
2013-11-29,35.2,28.2,22.1,16.7,11.5,5.4,66,50,33,0.00,40.00,10,5,0,0.00
2013-11-30,35.4,27.5,18.1,24.2,15.8,8.7,69,61,51,0.00,40.00,7,3,0,0.00
2013-12-1,44.4,39.0,34.0,41.1,36.0,24.9,99,89,69,0.00,40.00,10,3,0,0.32
2013-12-2,41.7,38.5,36.9,39.8,37.7,36.3,99,97,91,0.00,40.00,6,2,0,0.01
2013-12-3,50.7,40.2,35.8,37.9,35.0,31.6,99,83,53,0.00,40.00,8,4,0,0.00
2013-12-4,45.5,38.2,33.3,31.2,29.2,26.6,86,71,52,0.00,40.00,10,4,0,0.01
2013-12-5,55.9,46.6,34.5,54.8,42.2,28.7,99,85,73,0.00,40.00,9,3,0,0.00
2013-12-6,56.7,49.6,34.7,56.0,45.4,31.7,99,86,54,0.00,40.00,9,4,0,0.39
2013-12-7,41.9,35.1,29.8,34.2,27.7,19.5,99,76,53,0.00,40.00,12,5,0,0.22
2013-12-8,32.0,29.7,25.3,20.9,16.7,13.1,70,58,48,0.00,40.00,6,3,0,0.00
2013-12-9,42.4,35.1,27.1,42.2,33.5,15.4,99,94,54,0.00,40.00,11,4,0,0.80
2013-12-10,36.7,32.4,26.1,35.1,29.7,17.1,98,90,65,0.00,40.00,14,5,0,0.10
2013-12-11,31.8,27.0,23.2,20.7,19.0,17.4,79,72,61,0.00,40.00,14,7,0,0.00
2013-12-12,26.1,22.8,17.1,18.9,6.3,0.8,77,50,33,0.00,40.00,15,6,0,0.00
2013-12-13,29.8,23.1,15.4,17.6,11.2,1.0,73,60,47,0.00,40.00,15,7,0,0.00
2013-12-14,30.6,18.0,10.9,30.3,8.4,-4.7,99,68,44,0.00,40.00,20,6,0,0.00
2013-12-15,36.9,29.1,22.5,36.3,28.3,22.2,99,97,84,0.00,40.00,26,7,0,1.48
2013-12-16,30.4,25.7,18.9,24.3,14.1,6.7,91,63,38,0.00,40.00,20,7,0,0.02
2013-12-17,21.9,16.8,8.4,21.7,11.2,0.5,99,80,55,0.00,40.00,9,4,0,0.00
2013-12-18,37.2,26.7,17.1,24.8,20.7,16.6,99,79,52,0.00,40.00,12,6,0,0.04
2013-12-19,45.3,35.5,26.6,29.4,24.3,20.9,79,65,47,0.00,40.00,14,6,0,0.09
2013-12-20,55.4,44.7,36.1,39.1,33.5,27.6,74,65,50,0.00,40.00,13,4,0,0.00
2013-12-21,59.4,50.9,44.2,50.0,45.1,35.2,92,81,68,0.00,40.00,10,5,0,0.00
2013-12-22,56.3,44.9,36.7,55.4,44.1,36.4,99,97,88,0.00,40.00,12,3,0,0.00
2013-12-23,36.7,35.5,34.2,36.4,35.2,33.9,99,99,99,0.00,40.00,7,3,0,1.04
2013-12-24,34.7,34.7,34.7,34.4,34.4,34.4,99,99,99,0.00,40.00,12,5,0,0.00
2013-12-25,34.7,34.7,34.7,34.4,34.4,34.4,99,99,99,0.00,40.00,15,6,0,0.00
2013-12-26,34.7,34.7,34.7,34.4,34.4,34.4,99,99,99,0.00,40.00,8,5,0,0.00
2013-12-27,34.7,34.7,34.7,34.4,34.4,34.4,99,99,99,0.00,40.00,12,6,0,0.00
2013-12-28,34.7,34.7,34.7,34.4,34.4,34.4,99,99,99,0.00,40.00,14,5,0,0.00
2013-12-29,34.7,34.7,34.7,34.4,34.4,34.4,99,99,99,0.00,40.00,12,4,0,2.03
2013-12-30,34.7,34.7,34.7,34.4,34.4,34.4,99,99,99,0.00,40.00,19,7,0,0.06
2013-12-31,34.7,34.7,34.7,34.4,34.4,34.4,99,99,99,0.00,40.00,9,5,0,0.00
2014-1-1,34.7,34.7,34.7,34.4,34.4,34.4,99,99,99,0.00,40.00,14,7,0,0.00